Flag for Germany Weather past 2 weeks in Dresden, Saxony, Germany

Now
37 °F

Partly cloudy.


Feels Like: 32 °F
Forecast: 26 / 58 °F
Wind: 7 mph from North

Location: Dresden-Klotzsche


UV Index: 3 (Moderate)

Visibility: N/A


Pressure: 30.30 "Hg

Humidity: 100%

Dew point: 37 °F

Location of DresdenLocation

Historic Weather in Dresden

°F

Dresden temperature yesterday

Maximum temperature yesterday: 46 °F (at 12:50 PM)
Minimum temperature yesterday: 37 °F (at 12:20 AM)
Average temperature yesterday: 41 °F

Past Weeks' High & Low Weather Summary

 TemperatureHumidityPressure
High72 °F (Apr 3, 2:20 PM)100% (Apr 5, 6:50 AM)30.30 "Hg (Apr 5, 6:50 AM)
Low37 °F (Apr 11, 5:20 AM)30% (Apr 2, 3:20 PM)29.65 "Hg (Apr 3, 2:20 PM)
Average51 °F71%29.95 "Hg
* Reported Apr 1 4:20 AM — Apr 16 4:50 AM, Dresden, Weather by CustomWeather, © 2014

Note: Actual official high and low records may vary slightly from our data, if they occured in-between our weather recording intervals... More about our weather records

Advertising

Historic Weather Conditions — Data for Previous 24 hours

 ConditionsComfort  
Time TempWeatherWind HumidityBarometerVisibility
4:50 AM
Apr 16
37 °FPartly cloudy.7 mph100%30.30 "HgN/A
4:20 AM37 °FPassing clouds.6 mph93%30.27 "HgN/A
3:50 AM37 °FPartly cloudy.7 mph100%30.27 "HgN/A
3:20 AM39 °FPartly cloudy.6 mph93%30.27 "HgN/A
2:50 AM39 °FPartly cloudy.6 mph93%30.27 "HgN/A
1:20 AM39 °FPartly cloudy.6 mph93%30.24 "HgN/A
12:50 AM39 °FPartly cloudy.6 mph93%30.24 "HgN/A
12:20 AM39 °FPartly cloudy.7 mph93%30.21 "HgN/A
11:50 PM
Apr 15
39 °FPassing clouds.6 mph93%30.21 "HgN/A
11:20 PM39 °FLight rain. Passing clouds.8 mph93%30.21 "HgN/A
10:50 PM39 °FPassing clouds.3 mph93%30.21 "HgN/A
10:20 PM39 °FPassing clouds.7 mph93%30.18 "HgN/A
9:50 PM39 °FLight rain. Passing clouds.7 mph93%30.18 "HgN/A
9:20 PM39 °FPassing clouds.7 mph93%30.18 "HgN/A
8:50 PM39 °FBroken clouds.5 mph93%30.18 "HgN/A
8:20 PM39 °FLight rain. Broken clouds.5 mph93%30.15 "HgN/A
7:50 PM39 °FBroken clouds.5 mph93%30.15 "HgN/A
7:20 PM39 °FRain showers. Broken clouds.12 mph93%30.15 "Hg3 mi
6:50 PM45 °FBroken clouds.15 mph71%30.12 "HgN/A
6:20 PM45 °FScattered clouds.13 mph71%30.09 "HgN/A
5:50 PM46 °FScattered clouds.12 mph62%30.09 "HgN/A
5:20 PM46 °FScattered clouds.14 mph62%30.09 "HgN/A
4:50 PM46 °FPassing clouds.12 mph57%30.09 "HgN/A
4:20 PM46 °FScattered clouds.13 mph62%30.09 "HgN/A
3:50 PM45 °FScattered clouds.14 mph66%30.09 "HgN/A
3:20 PM45 °FPartly sunny.13 mph71%30.09 "HgN/A
2:50 PM43 °FSprinkles. Partly sunny.14 mph76%30.09 "HgN/A
2:20 PM45 °FSprinkles. Partly sunny.12 mph71%30.09 "HgN/A
1:50 PM46 °FPartly sunny.17 mph66%30.07 "HgN/A
1:20 PM46 °FBroken clouds.13 mph66%30.07 "HgN/A
12:50 PM46 °FBroken clouds.14 mph66%30.07 "HgN/A
12:20 PM45 °FPartly sunny.10 mph71%30.07 "HgN/A
11:50 AM45 °FPartly sunny.13 mph71%30.07 "HgN/A
11:20 AM43 °FPartly sunny.12 mph76%30.07 "HgN/A
10:50 AM41 °FPartly sunny.10 mph81%30.04 "HgN/A
10:20 AM41 °FPartly sunny.13 mph81%30.04 "HgN/A
9:50 AM41 °FPartly sunny.14 mph81%30.04 "HgN/A
9:20 AM41 °FPartly sunny.15 mph81%30.01 "HgN/A
8:50 AM39 °FPartly sunny.15 mph87%30.01 "HgN/A
8:20 AM39 °FPartly sunny.15 mph87%30.01 "HgN/A
6:50 AM39 °FPassing clouds.13 mph87%29.98 "HgN/A
Weather by CustomWeather, © 2014

See weather overview